GW5186 Weather Reports


Display with metric or nautical units.
time (UTC)temp
F
wind
direction
speed
MPH
gust
MPH
rain 1hr
in
rain 24hr
in
rain mn
in
humidity
%
barometer
mb
20260504231543 85 168 2.0 3.0 0.00 0.00 0.00 70 1016.2
20260504231039 85 112 2.0 3.0 0.00 0.00 0.00 68 1016.2
20260504230535 85 177 1.0 3.0 0.00 0.00 0.00 68 1016.1
20260504230035 86 179 1.0 3.0 0.00 0.00 0.00 67 1015.9
20260504225531 86 214 0.0 2.0 0.00 0.00 0.00 67 1015.9
20260504225028 86 216 1.0 3.0 0.00 0.00 0.00 67 1015.7
20260504224525 86 248 0.0 2.0 0.00 0.00 0.00 66 1015.5
20260504224022 86 249 0.0 6.0 0.00 0.00 0.00 66 1015.7
20260504223519 86 115 2.0 4.0 0.00 0.00 0.00 65 1015.6
20260504223015 87 169 1.0 3.0 0.00 0.00 0.00 65 1015.4
20260504222512 87 88 2.0 4.0 0.00 0.00 0.00 65 1015.3
20260504222009 87 152 2.0 3.0 0.00 0.00 0.00 64 1015.3
20260504221506 87 242 0.0 1.0 0.00 0.00 0.00 64 1015.4
20260504221003 87 277 2.0 2.0 0.00 0.00 0.00 64 1015.1
20260504220459 87 191 2.0 4.0 0.00 0.00 0.00 63 1015.1
20260504215956 87 112 1.0 7.0 0.00 0.00 0.00 63 1015.1
20260504215453 88 195 0.0 2.0 0.00 0.00 0.00 62 1014.9
20260504214950 89 330 3.0 7.0 0.00 0.00 0.00 61 1015.0
20260504214446 88 182 1.0 3.0 0.00 0.00 0.00 60 1014.8
20260504213943 88 87 4.0 6.0 0.00 0.00 0.00 62 1014.8
20260504213439 88 198 2.0 3.0 0.00 0.00 0.00 62 1014.7
20260504212937 88 102 3.0 8.0 0.00 0.00 0.00 61 1014.5
20260504212432 89 190 0.0 1.0 0.00 0.00 0.00 61 1014.6
20260504211930 90 97 4.0 7.0 0.00 0.00 0.00 59 1014.3
20260504211426 91 228 2.0 7.0 0.00 0.00 0.00 58 1014.5
20260504210924 92 86 3.0 6.0 0.00 0.00 0.00 57 1014.6
20260504210421 91 196 1.0 2.0 0.00 0.00 0.00 58 1014.4
20260504205918 91 103 2.0 6.0 0.00 0.00 0.00 58 1014.4
20260504205415 92 248 2.0 8.0 0.00 0.00 0.00 57 1014.5
20260504204913 93 60 4.0 7.0 0.00 0.00 0.00 55 1014.4
20260504204411 93 187 1.0 4.0 0.00 0.00 0.00 57 1014.2
20260504203911 93 79 4.0 7.0 0.00 0.00 0.00 55 1014.4
20260504203407 93 183 2.0 6.0 0.00 0.00 0.00 56 1014.3
20260504202903 92 190 1.0 6.0 0.00 0.00 0.00 57 1014.3
20260504202400 90 174 1.0 3.0 0.00 0.00 0.00 64 1014.2
20260504201856 90 185 2.0 4.0 0.00 0.00 0.00 68 1014.1
20260504201354 91 256 3.0 7.0 0.00 0.00 0.00 66 1014.2
20260504200851 93 90 2.0 13.0 0.00 0.00 0.00 62 1014.4
20260504200348 93 214 1.0 3.0 0.00 0.00 0.00 55 1014.1
20260504195844 93 195 1.0 7.0 0.00 0.00 0.00 56 1014.2
20260504195340 94 283 3.0 8.0 0.00 0.00 0.00 53 1014.2
20260504194837 93 101 2.0 4.0 0.00 0.00 0.00 53 1014.3
20260504194333 93 123 3.0 7.0 0.00 0.00 0.00 54 1014.4
20260504193829 93 151 3.0 4.0 0.00 0.00 0.00 54 1014.5
20260504193327 91 213 2.0 4.0 0.00 0.00 0.00 57 1014.5
20260504192825 89 52 3.0 6.0 0.00 0.00 0.00 68 1014.2
20260504192323 89 144 2.0 6.0 0.00 0.00 0.00 68 1014.4
20260504191821 89 103 3.0 6.0 0.00 0.00 0.00 68 1014.4
20260504191318 90 123 4.0 8.0 0.00 0.00 0.00 67 1014.7
20260504190814 91 78 4.0 6.0 0.00 0.00 0.00 67 1014.6
20260504190310 90 162 4.0 7.0 0.00 0.00 0.00 66 1014.4
20260504185806 90 230 3.0 7.0 0.00 0.00 0.00 68 1014.6
20260504185304 90 143 2.0 8.0 0.00 0.00 0.00 67 1014.7
20260504184800 89 247 2.0 8.0 0.00 0.00 0.00 68 1014.7
20260504184255 90 53 6.0 9.0 0.00 0.00 0.00 66 1014.7
20260504183751 89 72 2.0 8.0 0.00 0.00 0.00 68 1014.9
20260504183248 90 47 3.0 11.0 0.00 0.00 0.00 67 1015.2
20260504182747 90 212 2.0 7.0 0.00 0.00 0.00 67 1015.2
20260504182243 90 138 4.0 9.0 0.00 0.00 0.00 68 1014.9
20260504181741 89 114 4.0 7.0 0.00 0.00 0.00 67 1015.2
20260504181238 90 93 4.0 8.0 0.00 0.00 0.00 68 1015.2
20260504180737 90 108 5.0 9.0 0.00 0.00 0.00 67 1015.4
20260504180236 90 182 1.0 7.0 0.00 0.00 0.00 67 1015.2
20260504175733 89 168 2.0 8.0 0.00 0.00 0.00 69 1015.3
20260504175229 89 82 2.0 9.0 0.00 0.00 0.00 68 1015.3
20260504174727 89 277 4.0 10.0 0.00 0.00 0.00 69 1015.5
20260504174225 89 212 4.0 11.0 0.00 0.00 0.00 68 1015.3
20260504173721 90 191 2.0 14.0 0.00 0.00 0.00 68 1015.5
20260504173218 90 110 5.0 7.0 0.00 0.00 0.00 66 1015.6
20260504172715 90 105 4.0 11.0 0.00 0.00 0.00 57 1015.8
20260504172211 89 208 2.0 8.0 0.00 0.00 0.00 67 1015.6
20260504171708 89 121 2.0 8.0 0.00 0.00 0.00 69 1015.8
20260504171205 90 41 3.0 10.0 0.00 0.00 0.00 67 1016.0
20260504170701 89 176 4.0 9.0 0.00 0.00 0.00 66 1016.0
20260504170159 90 126 3.0 8.0 0.00 0.00 0.00 66 1016.1
20260504160118 92 153 2.0 3.0 0.00 0.00 0.00 49 1017.1
20260504151045 90 181 1.0 8.0 0.00 0.00 0.00 58 1017.1
20260504150543 91 121 4.0 9.0 0.00 0.00 0.00 56 1017.2
20260504141009 89 53 1.0 9.0 0.00 0.00 0.00 62 1017.1
20260504140505 89 189 3.0 4.0 0.00 0.00 0.00 62 1017.2
20260504130429 86 131 4.0 4.0 0.00 0.00 0.00 67 1017.5
20260504110316 79 233 0.0 0.0 0.00 0.00 0.00 85 1017.4
20260504100234 75 217 0.0 0.0 0.00 0.00 0.00 89 1017.0
20260504081627 76 227 0.0 0.0 0.00 0.00 0.00 88 1016.2
20260504081123 76 229 0.0 0.0 0.00 0.00 0.00 88 1016.3
20260504080620 76 216 0.0 0.0 0.00 0.00 0.00 88 1016.3
20260504080116 76 219 0.0 0.0 0.00 0.00 0.00 88 1016.4
20260504050433 78 220 0.0 0.0 0.00 0.00 0.00 83 1017.4
20260504045930 78 216 0.0 0.0 0.00 0.00 0.00 83 1017.2
20260504045425 78 216 0.0 2.0 0.00 0.00 0.00 83 1017.6
20260504044921 79 209 0.0 1.0 0.00 0.00 0.00 83 1017.5
20260504044420 79 221 0.0 0.0 0.00 0.00 0.00 83 1017.8
20260504043917 79 220 0.0 0.0 0.00 0.00 0.00 83 1017.5
20260504043413 79 227 0.0 0.0 0.00 0.00 0.00 82 1017.8
20260504042911 79 222 0.0 0.0 0.00 0.00 0.00 82 1017.7
20260504042408 79 216 0.0 0.0 0.00 0.00 0.00 82 1017.8
20260504041904 79 212 1.0 1.0 0.00 0.00 0.00 82 1017.9
20260504041400 79 219 0.0 0.0 0.00 0.00 0.00 82 1017.9
20260504040856 79 222 0.0 0.0 0.00 0.00 0.00 82 1018.0
20260504040354 79 217 0.0 0.0 0.00 0.00 0.00 82 1017.9
20260504035849 79 216 0.0 0.0 0.00 0.00 0.00 81 1018.2
20260504035347 79 209 0.0 1.0 0.00 0.00 0.00 82 1018.2
20260504034844 79 204 0.0 2.0 0.00 0.00 0.00 82 1018.1
20260504034341 79 239 0.0 0.0 0.00 0.00 0.00 82 1018.3
20260504033838 78 227 0.0 2.0 0.00 0.00 0.00 83 1018.2
20260504033336 78 235 0.0 2.0 0.00 0.00 0.00 83 1018.3
20260504032832 78 256 0.0 0.0 0.00 0.00 0.00 82 1018.4
20260504032330 77 235 0.0 0.0 0.00 0.00 0.00 82 1018.1
20260504031826 77 235 0.0 0.0 0.00 0.00 0.00 82 1018.4
20260504031324 77 229 0.0 0.0 0.00 0.00 0.00 81 1018.1
20260504030820 77 229 0.0 0.0 0.00 0.00 0.00 81 1018.1
20260504030318 77 234 0.0 0.0 0.00 0.00 0.00 81 1018.2
20260504025814 77 234 0.0 0.0 0.00 0.00 0.00 80 1018.2
20260504025311 77 234 0.0 0.0 0.00 0.00 0.00 80 1018.0
20260504024807 78 234 0.0 0.0 0.00 0.00 0.00 79 1018.1
20260504024304 78 234 0.0 0.0 0.00 0.00 0.00 79 1018.3
20260504023800 78 234 0.0 0.0 0.00 0.00 0.00 78 1018.2
20260504023257 78 234 0.0 0.0 0.00 0.00 0.00 78 1018.0
20260504022753 79 234 0.0 0.0 0.00 0.00 0.00 77 1018.0
20260504022249 79 234 0.0 0.0 0.00 0.00 0.00 77 1017.8
20260504021746 79 234 0.0 0.0 0.00 0.00 0.00 77 1017.8
20260504021244 79 225 0.0 0.0 0.00 0.00 0.00 77 1017.9
20260504020741 79 221 0.0 1.0 0.00 0.00 0.00 76 1017.7
20260504020237 79 201 1.0 1.0 0.00 0.00 0.00 76 1017.6
20260504015733 79 221 0.0 0.0 0.00 0.00 0.00 76 1017.7
20260504015230 79 225 0.0 0.0 0.00 0.00 0.00 76 1017.7
20260504014725 80 226 0.0 0.0 0.00 0.00 0.00 75 1017.6
20260504014222 80 226 0.0 0.0 0.00 0.00 0.00 75 1017.6
20260504013720 81 214 0.0 0.0 0.00 0.00 0.00 74 1017.3
20260504013218 80 191 0.0 0.0 0.00 0.00 0.00 74 1017.6
20260504012714 80 230 0.0 1.0 0.00 0.00 0.00 74 1017.4
20260504012212 80 215 0.0 1.0 0.00 0.00 0.00 74 1017.6
20260504011709 80 224 0.0 1.0 0.00 0.00 0.00 74 1017.5
20260504011205 81 225 0.0 1.0 0.00 0.00 0.00 74 1017.4
20260504010701 81 215 0.0 0.0 0.00 0.00 0.00 74 1017.6
20260504010157 81 223 0.0 0.0 0.00 0.00 0.00 73 1017.4
20260504005654 80 183 0.0 0.0 0.00 0.00 0.00 74 1017.6
20260504005151 80 217 0.0 1.0 0.00 0.00 0.00 74 1017.4
20260504004649 80 236 0.0 0.0 0.00 0.00 0.00 73 1017.4
20260504004146 81 240 0.0 1.0 0.00 0.00 0.00 72 1017.4
20260504003642 82 240 0.0 1.0 0.00 0.00 0.00 71 1017.3
20260504003138 82 246 0.0 2.0 0.00 0.00 0.00 70 1017.1
20260504002635 82 205 1.0 1.0 0.00 0.00 0.00 69 1017.1
20260504002133 82 156 0.0 1.0 0.00 0.00 0.00 69 1017.0
20260504001631 82 197 1.0 1.0 0.00 0.00 0.00 69 1016.9
20260504001126 82 188 1.0 1.0 0.00 0.00 0.00 69 1016.9
20260504000624 83 229 1.0 1.0 0.00 0.00 0.00 69 1016.7
20260504000121 83 182 1.0 1.0 0.00 0.00 0.00 69 1016.7
20260503235620 83 193 0.0 2.0 0.00 0.00 0.00 68 1016.8
20260503235116 83 108 0.0 2.0 0.00 0.00 0.00 68 1016.6
20260503234614 83 188 1.0 1.0 0.00 0.00 0.00 67 1016.5
20260503234112 84 202 0.0 1.0 0.00 0.00 0.00 67 1016.5
20260503233609 84 179 1.0 2.0 0.00 0.00 0.00 66 1016.4
20260503233104 84 234 1.0 1.0 0.00 0.00 0.00 65 1016.4
20260503232601 84 192 1.0 2.0 0.00 0.00 0.00 65 1016.3
20260503232059 84 210 1.0 1.0 0.00 0.00 0.00 65 1016.1